[[{"header":{"parameterUnit":"m.s-1","parameterCategory":1,"la1":30.2991,"la2":30.254,"lo1":-89.0895,"lo2":-89.0444,"dy":0.0017,"dx":0.0017,"nx":28,"ny":28,"refTime":"2024-08-01T09:00:00:Z","depth":0,"parameterNumber":2,"parameterNumberName":"U-component_of_WINDS"},"data":[0,0,0,0,0,0,0,0,0,0,0,0,0,0,0,0,0,0,0,0,0,0,0,0,0,0,0,0,0,0,0,0,0,0,0,0,0,0,0,0,0,0,0,0,0,0,0,0,0,0,0,0,0,0,0,0,0,0,4.7394,4.7396,0,4.753,4.7532,4.7533,4.7461,4.7457,4.7454,4.745,4.7593,4.76,4.7607,0,0,0,0,0,0,0,0,0,0,0,0,0,4.7075,4.7081,4.7394,4.7396,4.7398,4.753,4.7532,4.7534,4.7462,4.7457,4.7453,4.7449,4.759,4.7599,4.7607,0,0,0,0,0,0,0,0,0,0,0,0,0,4.7212,4.7083,4.7394,4.7378,4.7378,4.7529,4.7532,4.7534,4.7463,4.7457,4.7452,4.7446,4.7587,4.7598,4.7609,4.7785,0,0,4.7642,4.7646,0,0,0,0,0,0,0,0,4.7205,4.7224,4.7378,4.7379,4.7379,4.7473,4.7471,4.7618,4.7464,4.743,4.745,4.7444,4.7557,4.757,4.7608,4.7792,4.7798,4.7643,4.7649,4.7654,4.7657,0,0,0,0,0,0,0,4.7195,4.7218,4.7448,4.7381,4.7381,4.7364,4.7378,4.7499,4.7523,4.7433,4.7428,4.7445,4.7557,4.7598,4.7611,4.78,4.7642,4.7652,4.7659,4.7663,4.8134,4.814,0,0,0,0,0,0,4.7186,4.7211,4.7444,4.7452,4.7276,4.7374,4.7389,4.7448,4.7522,4.7527,4.7449,4.7441,4.7582,4.7598,4.7616,4.7826,4.7654,4.7664,4.767,4.8128,4.8135,4.8142,0,0,0,0,0,0,4.718,4.7208,4.7438,4.733,4.7358,4.7386,4.7453,4.7454,4.7495,4.7534,4.7538,4.7487,4.7578,4.76,4.7743,4.783,4.7669,4.7678,4.8121,4.813,4.8138,4.8248,0,0,0,0,0,0,4.7171,4.7206,4.7273,4.7332,4.7364,4.7563,4.7458,4.7461,4.7513,4.7504,4.757,4.7576,4.7576,4.7727,4.7754,4.7842,4.7687,4.8113,4.8125,4.8136,4.8237,4.826,4.828,0,0,0,0,0,4.716,4.73,4.7277,4.7305,4.7448,4.7568,4.7587,4.7582,4.7521,4.7588,4.7613,4.7574,4.7816,4.7742,4.7772,4.7864,4.8108,4.8122,4.8135,4.8227,4.8255,4.8279,0,0,0,0,0,0,4.7252,4.7307,4.7282,4.7446,4.7503,4.7556,4.7641,4.7613,4.7689,4.7677,4.7669,4.7685,4.7833,4.7863,4.778,4.8038,4.7952,4.7972,4.8013,4.804,4.8061,4.805,4.7696,0,0,0,0,0,4.7291,4.7383,4.7427,4.7566,4.7596,4.7614,4.7666,4.7658,4.7717,4.7741,4.7776,4.7836,4.7925,4.7984,4.8069,4.8241,4.8254,4.8319,4.834,4.8358,4.8375,4.8466,4.8495,4.8186,4.8186,4.8186,0,0,4.7373,4.7415,4.7473,4.7586,4.7629,4.7724,4.7635,4.774,4.7811,4.7757,4.7893,4.7921,4.7987,4.8145,4.8217,4.8175,4.8463,4.8375,4.8388,4.8396,4.8483,4.8512,4.8538,4.8195,4.8194,4.8192,0,0,4.7571,4.7612,4.7732,4.7777,4.7842,4.7853,4.7882,4.794,4.7956,4.8092,4.8053,4.8137,4.8292,4.834,4.8384,4.8599,4.8565,4.8627,4.8738,4.8827,4.8851,4.8873,4.8948,4.8975,4.8644,4.8644,4.8644,0,4.7665,4.7806,4.7798,4.7905,4.7956,4.791,4.8031,4.8075,4.8166,4.8202,4.8153,4.8344,4.8386,4.8553,4.8605,4.8644,4.8676,4.8619,4.8848,4.887,4.889,4.8961,4.899,4.8651,4.865,4.865,4.8649,0,4.7918,4.8017,4.8106,4.8192,4.8253,4.8367,4.8376,4.8438,4.8424,4.844,4.8578,4.8626,4.8719,4.8758,4.8747,4.8924,4.8895,4.8848,4.8762,4.8926,4.8993,4.902,4.8661,4.8659,4.8657,4.8655,0,0,4.8178,4.8257,4.829,4.8328,4.8396,4.8473,4.8585,4.8673,4.8726,4.879,4.8883,4.9014,4.897,4.9021,4.9014,4.9093,4.9257,4.9036,4.9037,4.9074,4.9454,4.9488,4.9519,4.9236,4.9241,4.9245,4.9447,0,4.8379,4.8573,4.8568,4.8749,4.8839,4.8796,4.8893,4.8946,4.8964,4.9043,4.9063,4.9155,4.9091,4.9121,4.9197,4.9221,4.9333,4.9207,4.9322,4.9326,4.9305,4.9555,4.9592,4.978,4.9474,4.9478,4.9481,0,4.864,4.8711,4.89,4.8953,4.8991,4.9078,4.9158,4.9235,4.9294,4.9301,4.9357,4.9337,4.945,4.9361,4.9517,4.943,4.9477,4.9496,4.9503,4.9513,4.9413,4.957,4.9841,4.9868,4.9523,4.952,4.9517,0,4.8809,4.8952,4.9082,4.9117,4.9183,4.9245,4.9275,4.9328,4.9381,4.9452,4.9486,4.9569,4.9615,4.968,4.9683,4.9618,4.9839,4.9751,4.9848,4.9848,4.9896,4.9893,5.0177,4.9929,4.9928,4.9928,4.9927,0,4.9034,4.9151,4.9159,4.9239,4.9369,4.9362,4.9491,4.9515,4.9563,4.9647,4.9616,4.9696,4.9696,4.9778,4.9781,4.9909,4.993,4.9939,4.9938,4.9941,4.9939,4.997,4.9957,4.9935,4.9934,4.9932,4.9931,0,4.9244,4.9254,4.9394,4.9444,4.9459,4.9553,4.9596,4.9672,4.9686,4.9793,4.9818,4.9841,4.9935,4.9945,5.0056,5.0058,5.0211,5.0197,5.0191,5.0188,5.0283,5.0274,5.0596,5.0638,5.0364,5.0367,5.0369,0,4.9386,4.9475,4.9534,4.9587,4.9621,4.9708,4.9761,4.9758,4.9815,4.9887,4.9955,5.0046,5.0118,5.0271,5.0298,5.0381,5.0368,5.0476,5.0381,5.038,5.0368,5.0362,5.037,5.0494,5.0497,5.0499,5.0501,0,4.9637,4.9637,4.9714,4.9794,4.9857,4.992,4.9979,5.0025,5.0028,5.0094,5.0189,5.0245,5.0356,5.0447,5.0529,5.056,5.0532,5.0531,5.0557,5.056,5.0552,5.0556,5.0239,5.0523,5.0521,5.0519,5.0518,5.0517,4.9816,4.9892,4.9945,5.0032,5.0075,5.013,5.0203,5.0226,5.0305,5.0394,5.0387,5.0492,5.0547,5.0654,5.0692,5.0774,5.0738,5.0777,5.0786,5.0796,5.0804,5.054,5.0789,5.0788,5.0788,5.0787,5.0787,0,5.0064,5.0095,5.0175,5.0256,5.0325,5.029,5.0353,5.0412,5.0504,5.0557,5.0629,5.0737,5.0824,5.0857,5.0942,5.1001,5.099,5.1023,5.1018,5.1026,5.0833,5.08,5.1031,5.1031,5.1031,5.1031,5.1031,5.1031,5.02,5.0326,5.0332,5.0479,5.051,5.0611,5.0649,5.0699,5.0741,5.0863,5.0935,5.0955,5.1,5.1087,5.1165,5.1173,5.1205,5.1244,5.1246,5.1064,5.104,5.1016,5.0986,5.1251,5.1252,5.1431,5.1433,5.1434]},{"header":{"parameterUnit":"m.s-1","parameterCategory":1,"la1":30.2991,"la2":30.254,"lo1":-89.0895,"lo2":-89.0444,"dy":0.0017,"dx":0.0017,"nx":28,"ny":28,"refTime":"2024-08-01T09:00:00:Z","depth":0,"parameterNumber":3,"parameterNumberName":"V-component_of_WINDS"},"data":[0,0,0,0,0,0,0,0,0,0,0,0,0,0,0,0,0,0,0,0,0,0,0,0,0,0,0,0,0,0,0,0,0,0,0,0,0,0,0,0,0,0,0,0,0,0,0,0,0,0,0,0,0,0,0,0,0,0,0.9032,0.9032,0,0.9055,0.9055,0.9056,0.9063,0.9063,0.9063,0.9063,0.9087,0.9087,0.9088,0,0,0,0,0,0,0,0,0,0,0,0,0,0.8992,0.8993,0.9032,0.9032,0.9032,0.9055,0.9055,0.9056,0.9063,0.9063,0.9063,0.9062,0.9086,0.9087,0.9088,0,0,0,0,0,0,0,0,0,0,0,0,0,0.9012,0.8993,0.9032,0.9039,0.904,0.9055,0.9055,0.9056,0.9063,0.9063,0.9063,0.9062,0.9086,0.9087,0.9088,0.9099,0,0,0.9092,0.9092,0,0,0,0,0,0,0,0,0.9011,0.9013,0.9037,0.9038,0.9039,0.9056,0.905,0.907,0.9063,0.9054,0.9063,0.9062,0.9077,0.9078,0.9083,0.91,0.9101,0.9092,0.9092,0.9093,0.9093,0,0,0,0,0,0,0,0.901,0.9012,0.9041,0.9038,0.9039,0.904,0.9043,0.9054,0.9066,0.9055,0.9055,0.9058,0.9077,0.9082,0.9084,0.9101,0.9092,0.9093,0.9093,0.9094,0.9126,0.9126,0,0,0,0,0,0,0.9007,0.9011,0.904,0.9042,0.9024,0.9041,0.9044,0.9051,0.9066,0.9068,0.9058,0.9058,0.908,0.9083,0.9085,0.9097,0.9093,0.9094,0.9095,0.9126,0.9126,0.9126,0,0,0,0,0,0,0.9006,0.901,0.9039,0.9027,0.9031,0.9042,0.9049,0.9051,0.9056,0.9068,0.907,0.9061,0.908,0.9083,0.9095,0.9098,0.9094,0.9096,0.9125,0.9126,0.9126,0.9122,0,0,0,0,0,0,0.9005,0.9009,0.9014,0.9027,0.9031,0.9049,0.905,0.9052,0.9058,0.9059,0.9072,0.9074,0.908,0.9093,0.9096,0.91,0.9096,0.9125,0.9126,0.9126,0.9122,0.9122,0.9123,0,0,0,0,0,0.9004,0.9012,0.9014,0.9017,0.9037,0.905,0.9052,0.9059,0.9059,0.9063,0.907,0.9073,0.9097,0.9094,0.9097,0.9101,0.9125,0.9125,0.9126,0.9122,0.9122,0.9123,0,0,0,0,0,0,0.9,0.9014,0.9016,0.9029,0.9038,0.9051,0.9057,0.906,0.9069,0.9069,0.9077,0.908,0.9091,0.9097,0.9094,0.9111,0.9111,0.9112,0.9107,0.9108,0.9108,0.9106,0.9097,0,0,0,0,0,0.9,0.9009,0.9021,0.9032,0.9036,0.9045,0.9051,0.9056,0.9065,0.9069,0.9078,0.9087,0.9096,0.9102,0.9111,0.9123,0.9125,0.9127,0.9127,0.9127,0.9128,0.9134,0.9134,0.9127,0.9127,0.9127,0,0,0.9002,0.9011,0.9016,0.9031,0.9038,0.9047,0.9049,0.9058,0.9065,0.9071,0.9082,0.9088,0.9099,0.911,0.9116,0.9116,0.9131,0.9128,0.9128,0.9129,0.9134,0.9135,0.9135,0.9128,0.9128,0.9127,0,0,0.9009,0.9017,0.9026,0.9033,0.9044,0.905,0.9052,0.9064,0.9068,0.9079,0.9083,0.9091,0.9107,0.9114,0.912,0.9128,0.9131,0.913,0.9132,0.9137,0.9138,0.9138,0.914,0.9141,0.9131,0.9131,0.9131,0,0.901,0.9023,0.903,0.9039,0.9045,0.905,0.9059,0.9065,0.9079,0.9083,0.9082,0.9102,0.9109,0.9122,0.9124,0.9128,0.913,0.9129,0.9137,0.9137,0.9138,0.914,0.9141,0.9131,0.9131,0.9131,0.9131,0,0.9023,0.9032,0.9038,0.905,0.9057,0.9066,0.9073,0.9079,0.9083,0.9088,0.9099,0.9108,0.9119,0.9122,0.9126,0.9135,0.9134,0.9135,0.9135,0.9139,0.9141,0.9142,0.9131,0.9131,0.9131,0.9131,0,0,0.903,0.9045,0.9047,0.9052,0.9063,0.907,0.9079,0.9089,0.9093,0.9102,0.9109,0.9121,0.9122,0.9128,0.9133,0.9137,0.9142,0.9138,0.9138,0.9138,0.9151,0.915,0.9151,0.9144,0.9144,0.9144,0.915,0,0.9039,0.9054,0.906,0.9072,0.908,0.9084,0.9091,0.9099,0.9104,0.9111,0.9117,0.9125,0.9126,0.913,0.9134,0.914,0.9145,0.914,0.915,0.915,0.9147,0.9153,0.9152,0.9158,0.9151,0.9151,0.9152,0,0.9051,0.9059,0.9073,0.9082,0.9085,0.9092,0.91,0.9107,0.9116,0.9119,0.9125,0.9129,0.9137,0.9136,0.9147,0.9143,0.9147,0.9151,0.9151,0.9153,0.9151,0.9154,0.916,0.916,0.9153,0.9153,0.9153,0,0.9055,0.9069,0.9078,0.9082,0.9093,0.9097,0.9102,0.911,0.9115,0.9123,0.9126,0.9134,0.9139,0.9145,0.9151,0.915,0.9161,0.9161,0.9164,0.9164,0.9167,0.9166,0.9173,0.9169,0.9169,0.9169,0.9169,0,0.9064,0.9072,0.9079,0.9085,0.9094,0.9099,0.9107,0.9112,0.9119,0.9125,0.9129,0.9135,0.9142,0.9148,0.9153,0.9161,0.9163,0.9165,0.9167,0.9165,0.9165,0.9168,0.9168,0.9169,0.9169,0.9169,0.9169,0,0.9069,0.9075,0.9085,0.9094,0.9096,0.9102,0.911,0.9115,0.912,0.9128,0.913,0.9137,0.9145,0.9151,0.9161,0.9164,0.9172,0.9173,0.9169,0.917,0.9173,0.9172,0.9182,0.9183,0.9178,0.9179,0.9179,0,0.9075,0.9081,0.909,0.9094,0.9099,0.9106,0.9111,0.9116,0.9121,0.913,0.9134,0.9142,0.9148,0.916,0.9166,0.9174,0.9175,0.9178,0.9176,0.9174,0.9175,0.9174,0.9175,0.9178,0.9178,0.9178,0.9178,0,0.9084,0.9086,0.9093,0.91,0.9106,0.9112,0.9119,0.9122,0.9128,0.9133,0.9141,0.9146,0.9156,0.9163,0.9171,0.9175,0.9178,0.9179,0.918,0.9179,0.9176,0.9177,0.917,0.9179,0.9179,0.9179,0.9179,0.9178,0.909,0.9095,0.9101,0.9109,0.9114,0.9119,0.9124,0.9129,0.9135,0.9143,0.9146,0.9153,0.916,0.9171,0.9175,0.9181,0.9181,0.9183,0.9183,0.9183,0.9183,0.9175,0.9182,0.9182,0.9182,0.9182,0.9182,0,0.9099,0.9103,0.9109,0.9118,0.9123,0.9124,0.913,0.9135,0.9141,0.9147,0.9153,0.9161,0.9168,0.9174,0.9181,0.9184,0.9186,0.9186,0.9186,0.9187,0.9183,0.9181,0.9185,0.9185,0.9185,0.9185,0.9185,0.9185,0.9104,0.9112,0.9115,0.9125,0.9129,0.9136,0.914,0.9144,0.9149,0.9158,0.9163,0.9167,0.9172,0.9179,0.9186,0.9187,0.9189,0.919,0.9191,0.9188,0.9187,0.9187,0.9185,0.919,0.919,0.9195,0.9195,0.9195]}]]